Regional Weather Roundup
Issued by NWS New Orleans/Baton Rouge, LA

Home | Current Version | Previous Version | Text Only | Print | Product List | Glossary On
Versions: 1 2 3 4 5 6 7 8 9 10 11 12 13 14 15 16 17 18 19 20 21 22 23 24 25 26 27 28 29 30 31 32 33 34 35 36 37 38 39 40 41 42 43 44 45 46 47 48 49 50
605
ASUS44 KLIX 272305
RWRLIX
NEW ORLEANS REGIONAL WEATHER ROUNDUP
NATIONAL WEATHER SERVICE NEW ORLEANS LA
600 PM CDT SUN JUL 27 2014

NOTE: "FAIR" INDICATES FEW OR NO CLOUDS BELOW 12,000 FEET WITH NO
      SIGNIFICANT WEATHER AND/OR OBSTRUCTIONS TO VISIBILITY.
      SKY/WX - SKY CONDITION AND SIGNIFICANT WEATHER.
      TMP - AIR TEMPERATURE.     DP    - DEWPOINT TEMPERATURE.
      RH  - RELATIVE HUMIDITY.   PRES  - PRESSURE.
      HI  - HEAT INDEX.          WCI   - WIND CHILL INDEX.

*  THESE STATIONS ARE NOT NWS OR FAA STATIONS AND ARE NOT UNDER
   NWS QUALITY CONTROL.

LAZ038-040-048-061>063-065>067-069-280000-
SOUTHEAST LOUISIANA

CITY           SKY/WX    TMP DP  RH WIND       PRES   REMARKS
N.O. AUDUBON     N/A     93  76  57 MISG        N/A  HX 105
N.O. INTL ARPT MOSUNNY   91  73  55 W10       30.02F HX  99
N.O. LAKEFRONT SUNNY     91  72  53 VRB5      30.02F HX  98
N.O. DOWNTOWN* CLOUDY    90  73  58 N5        30.03S HX  98
SLIDELL        SUNNY     92  72  51 SW5       30.00F HX  99
BATON ROUGE    MOSUNNY   93  74  53 W7        30.01F HX 103
BOOTHVILLE     SUNNY     87  76  69 SW14      30.05F HX  97
BELLE CHASSE   MOSUNNY   88  73  61 VRB3      30.03S THUNDER HX  95
BOGALUSA*        N/A     93  72  51 W6        30.02F HX 100
GALLIANO*      NOT AVBL
NEW ROADS*       N/A     92  72  51 W5        30.02S HX 100
GONZALES*        N/A     90  78  68 SW6       30.03R HX 104
HAMMOND*       SUNNY     95  68  41 NW6       30.03F HX  99
HOUMA*         MOSUNNY   90  72  55 W12       30.04S HX  96
PORT FOURCHON* CLEAR     88  77  70 SW12      30.06F HX 100

$$

MSZ070-080>082-280000-
SOUTHERN MISSISSIPPI

CITY           SKY/WX    TMP DP  RH WIND       PRES   REMARKS
MCCOMB         MOSUNNY   90  73  57 SW8       30.03S HX  98
GULFPORT       MOSUNNY   95  73  48 SW8       30.00F HX 104
BILOXI         SUNNY     90  76  62 SW15G21   30.00F HX 101
PASCAGOULA     SUNNY     89  72  56 SW8       30.01F HX  96
STENNIS ARPT*  MOSUNNY  N/A N/A N/A W5        30.01F

$$

COASTAL OBSERVATIONS
LAKE AND NEARSHORE STATIONS

STATION/POSITION TIME  TEMP    WIND        PRES    WAVE
                       AIR SEA DIR/SP/G            HT/PER
                 (UTC) (F)     (DEG/KT/KT) (MB)    (FT/S)
PASCAGOULA       2300   89     210/ 14/ 17 1015.9
WAVELAND YACHT   2300   92     290/  6/  7 1015.6
GRAND ISLE       2300   87 87  230/  8/ 13 1017.9
SOUTHWEST PASS   2300   87 85  240/ 11/ 12 1018.0
NEW CANAL        2300   90 86  360/  3/  4 1017.0
SHELL BEACH      2300   89 83  210/  4/  5 1016.6

OFFSHORE STATIONS

STATION/POSITION TIME  TEMP    WIND        PRES    WAVE
                       AIR SEA DIR/SP/G            HT/PER
                 (UTC) (F)     (DEG/KT/KT) (MB)    (FT/S)
64 S DAUPHIN ISL 2219   85 88  220/  8/ 10 1017.8

$$




USA.gov is the U.S. government's official web portal to all federal, state and local government web resources and services.